STARLINK-35955, 66635

Orbit data source: Space-Track

STARLINK-35955, 66635 is a payload satellite owned by SpaceX/Seattle (US) in LEO that was launched on Sun, 23 Nov 2025 UTC via an FALCON 9 launch vehicle from the Air Force Western Test Range (AFWTR). Payload-class satellites include a variety of spacecraft equipped with specific instruments for various scientific and technological missions. These include communications satellites like Starlink; space stations such as the ISS; scientific satellites like the Hubble; Earth observation satellites from companies like Planet Labs, Umbra, and HawkEye 360; GPS; miniature CubeSats for education and research; and military/defense satellites.

Loading next visibility...
Identifier
66635, 2025-271U
Orbit
LEO
Country
Flag of USUS
Related business
Manufacturer
SpaceX/Seattle
Mission
Operational Commercial Communications
Bus & Motor
STARLINK V2MO, Unknown motor
Mass
575 kg wet, ~530 kg dry
Launch date (UTC)
2025-11-23 (10 months ago)
Launch vehicle
FALCON 9
Launch site
Air Force Western Test Range (AFWTR)
Object type
Payload
Rocket body
Debris
Shape & HBR
Box + 1 Pan, 17.7 m
Radar Cross Section
41.120 m², Large (>1 m²)

Expand to show TLE details & history
Last TLE update: 20 hours ago

TLE from 20 hours ago
0 STARLINK-35955
1 66635U 25271U   26265.13314239  .00018716  00000-0  56360-3 0  9996
2 66635  53.1581 306.0184 0001768 101.1443 258.9759 15.34404122 47663
Epoch: 2026-09-22T03:11Z
TLE epoch observation values (Epoch: 2026-09-22T03:11:43.502Z)
Latitude
0.00003°
Longitude
-102.91584°
Altitude
463.824 km
Speed
7.636 km/s
True Right ascension
20h 24m 04s
True Declination
0° 00' 00"
Sunlit
Object was in full shadow at epoch
Visualization orbit readout
Latitude
Unknown
Longitude
Unknown
Altitude
Unknown
Speed
Unknown
Apparent Right ascension
Unknown
Apparent Declination
Unknown
Sunlit
N/A
Visualization observer readout
Local Sidereal Time
16:26:20
Azimuth
Unknown
Elevation
Unknown
Doppler factor
Unknown
Orbital elements
Apogee altitude
464.158 km
Perigee altitude
461.739 km
Semi-major axis
6,841.085 km
Eccentricity
0.00018
Inclination
53.1581°
RAAN
306.0184°
Arg. of periapsis
101.1443°
True anomaly
258.95601°
Mean anomaly
258.9759°
Eccentric anomaly
258.96596°
Mean motion
3.8358 °/min
Orbital period
93.85 mins
BSTAR
0.0005636
Loading maneuver chart data...
Computing Atmospheric mass density...
Loading historical data...
Loading historical data...
Loading historical data...
Loading historical data...
Loading historical data...
Loading historical data...
Loading historical data...

Documentation

Showing up to 5 results
|